Zurück zum Katalog

STARLINK-32261

AktivKommunikationVLEO
NORAD 61530·PAYLOAD·🇺🇸 United States

Gestartet Oct 15, 2024 von Cape Canaveral Space Force Station

Loading…

Nächste Überflüge (nächste 24 Stunden)

TLE

AktuellSource: CelesTrak SupGP

Epoche: Sep 15, 2026, 03:37 UTC

1 61530C 24183X   26258.15118056  .00060796  00000+0  19540-2 0  2589
2 61530  53.1582 341.1869 0001155 100.2824  30.1190 15.31689015    16

Verfolge STARLINK-32261 in Echtzeit mit AllMySat

Download on the App Store